Location: Unspecified
(43.4680°N, 87.1740°E)
Time: 20:05:29
(UTC+00:00)

Cosmos 1626 Rocket - Pass Details

Date: 17 January 2020
Orbit: 603 x 631 km, 82.5° (Epoch: 16 February)

Event Time Altitude Azimuth Distance (km) Brightness Sun altitude
Exits shadow 23:18:17 75° 104° (ESE) 632 3.6 -25.3°
Drops below altitude 10° 23:22:29 10° 168° (SSE) 1,956 6.3 -24.6°
Sets 23:24:41 0° 169° (S) 2,859 7.2 -24.2°
